Theta_e
348 346 345 345 346 347 348 348 350 349 350 349 348 345 343 343 343 341 341 339 337 336 338 339 338 338 338 338 337 337 338 338 338 338 339 338 337 337 338 338 339 340 339
348 345 347 349 349 347 347 348 349 350 351 346 349 349 347 341 340 340 341 341 338 337 337 339 339 338 338 337 337 337 337 337 337 337 336 336 335 335 335 336 336 336 336
349 347 349 349 350 350 351 350 350 351 352 348 349 350 349 343 338 339 341 341 340 339 340 340 339 338 337 336 336 335 335 337 338 338 337 336 336 335 335 334 333 333 333
350 347 349 348 351 350 349 350 352 352 351 351 350 348 348 346 340 339 341 342 341 341 341 340 339 338 336 335 332 331 329 330 337 339 337 335 332 327 321 318 322 331 336
348 350 349 348 348 350 352 351 353 353 352 352 351 348 348 344 341 341 342 343 343 341 342 341 339 337 334 333 333 330 327 326 323 324 324 321 316 322 325 324 319 314 315
350 349 349 348 346 348 350 352 353 352 352 352 352 348 346 340 341 342 342 342 341 342 341 341 339 337 333 334 335 334 331 327 327 327 325 323 323 325 325 322 317 317 315
351 351 349 346 346 347 347 350 352 352 351 352 352 350 344 342 340 341 342 343 342 342 342 342 341 337 336 337 335 335 333 332 330 328 328 326 326 325 324 320 317 320 330
350 350 347 345 348 349 349 347 351 353 354 352 351 344 347 343 342 343 343 343 343 342 342 340 342 338 335 337 336 333 332 332 338 334 330 328 326 325 323 318 317 319 328
349 350 349 348 348 349 350 350 352 352 353 353 352 348 347 346 338 343 343 343 342 340 339 341 342 341 337 338 336 334 333 332 332 332 334 333 330 327 325 319 318 323 326
351 351 351 351 349 351 351 350 352 351 353 350 350 350 346 345 344 345 343 341 341 336 339 339 340 340 338 335 336 335 333 332 332 331 331 330 330 326 324 323 325 326 326
350 351 351 352 352 352 350 351 353 352 352 350 350 348 345 343 341 340 345 343 340 333 334 334 332 331 330 331 331 330 330 331 329 327 322 322 325 324 323 323 324 326 326
349 350 350 351 352 352 354 354 353 352 352 350 349 348 341 342 343 343 341 341 340 327 322 322 322 321 320 321 322 322 323 321 320 319 320 319 318 324 324 325 326 327 327
348 349 349 349 354 356 355 356 353 352 352 349 347 347 340 344 344 344 343 340 341 336 328 322 320 318 318 318 319 319 317 317 317 317 316 316 317 322 323 323 324 325 325
341 346 348 350 352 352 350 353 353 355 355 345 347 342 343 338 339 344 343 342 340 335 330 324 316 316 316 315 315 316 315 316 318 320 321 320 319 320 320 320 320 321 322
342 343 345 347 348 349 355 355 351 355 355 346 342 339 336 336 344 344 344 343 337 338 332 319 315 314 315 315 316 316 317 317 320 321 321 320 319 318 317 317 317 317 317
345 345 349 352 356 358 357 355 350 355 356 347 342 338 337 344 345 341 340 339 338 334 330 314 314 313 313 314 314 314 315 315 317 318 315 315 315 315 314 314 313 312 313
346 345 344 347 350 352 349 349 358 359 356 349 341 340 339 345 340 335 333 330 324 325 319 313 309 308 306 309 309 309 310 313 309 311 310 313 313 313 312 310 310 310 310
347 346 346 348 349 349 352 355 357 359 356 350 347 342 343 341 335 329 327 316 314 316 312 313 311 309 306 304 302 303 306 307 308 308 309 312 311 310 311 310 308 308 309
348 349 352 354 355 355 356 360 362 359 355 349 344 338 342 337 329 321 313 311 312 312 312 312 311 309 308 305 303 305 304 304 306 307 308 309 308 308 308 309 307 308 309
350 351 353 355 356 357 361 363 361 356 350 342 338 341 341 334 325 314 310 311 312 312 312 312 310 308 307 306 304 304 305 304 305 306 305 308 307 307 307 306 306 307 307
350 352 354 356 358 361 363 364 358 353 347 341 342 340 327 318 312 310 308 313 313 314 313 312 311 308 307 306 305 304 304 303 305 304 303 306 306 306 306 305 306 306 307
352 355 356 357 361 364 367 364 357 351 343 341 333 321 316 312 308 311 312 313 313 314 314 312 310 309 304 303 303 304 302 302 304 304 303 306 306 306 306 305 305 307 309
355 357 358 360 364 368 366 361 354 344 341 336 325 320 314 310 311 312 312 313 313 314 316 313 309 304 302 301 303 303 302 301 301 303 303 305 305 306 306 305 305 307 313
356 358 359 363 367 365 362 356 347 341 335 326 322 318 316 312 312 312 314 314 314 314 314 314 311 307 306 307 302 303 302 303 303 303 303 305 303 306 306 307 308 309 312
358 359 363 366 366 359 357 351 344 336 326 321 319 318 316 314 313 313 314 314 315 314 314 314 313 312 310 310 305 303 301 303 305 304 302 303 302 303 307 306 309 313 312
358 362 366 365 363 357 353 346 342 335 324 322 320 318 317 315 315 314 315 313 313 314 314 314 314 313 307 307 308 303 301 301 302 304 301 302 302 302 305 308 307 310 311
Wind_Speed
3 3 2 3 4 6 7 9 12 12 13 14 11 10 8 9 8 7 7 8 9 10 9 8 10 10 11 12 12 13 13 13 11 11 11 11 11 10 10 11 13 14 16
2 1 2 5 6 7 8 11 14 12 11 15 16 15 16 12 10 7 7 7 9 10 10 9 8 8 10 11 12 12 12 12 12 13 13 13 12 12 11 11 11 13 14
4 3 3 5 8 7 7 12 14 11 11 15 16 15 17 17 13 8 7 8 8 10 10 10 11 12 11 10 10 8 9 11 11 11 10 10 10 9 9 10 11 14 15
7 7 7 6 7 6 8 10 9 6 11 14 15 16 16 17 10 10 11 9 9 13 13 13 13 13 11 9 9 9 9 8 8 7 6 6 5 4 5 7 10 12 15
10 10 9 9 8 6 7 6 5 9 12 14 17 17 17 15 6 9 8 11 15 15 14 14 14 13 11 10 10 9 7 5 5 3 4 5 3 2 5 8 10 12 15
13 13 14 12 11 9 7 7 7 8 12 13 16 13 16 7 7 5 7 13 11 6 10 15 15 15 12 9 12 11 8 7 7 6 4 5 6 8 9 12 13 14 14
12 14 15 12 12 12 11 9 8 9 11 12 11 16 10 8 9 10 15 13 7 9 12 16 16 15 16 16 14 14 13 11 10 9 10 9 10 11 12 14 15 13 12
10 13 14 14 12 13 12 12 10 10 11 10 4 2 3 6 12 17 12 12 8 13 18 15 13 12 15 17 14 16 17 15 14 13 14 15 14 14 15 16 17 16 11
10 13 15 18 18 19 17 15 12 10 11 9 4 3 1 2 5 6 11 8 14 17 15 10 8 10 14 14 12 17 16 16 15 15 16 16 16 16 18 16 16 13 12
9 10 17 22 22 20 20 19 18 16 15 13 5 3 4 4 2 3 5 11 9 13 10 8 7 5 5 8 6 6 10 13 14 16 16 16 15 17 19 17 14 13 11
10 11 17 18 21 24 24 24 18 17 16 13 11 2 3 3 7 6 4 4 3 10 11 11 10 9 7 7 5 4 4 6 8 8 11 13 15 16 17 17 15 14 14
14 14 15 16 17 23 25 23 19 20 14 12 11 8 4 3 3 5 4 2 1 5 10 11 9 9 9 8 8 8 11 12 12 14 16 18 19 17 16 14 14 15 15
18 17 18 18 17 16 15 18 20 20 16 13 11 9 6 3 5 7 3 3 1 3 1 8 10 10 11 11 11 11 11 13 15 16 17 17 15 12 12 12 10 11 12
23 22 19 18 19 20 20 20 22 22 14 12 8 7 4 3 8 6 3 3 0 0 3 5 9 12 13 13 13 16 16 16 16 15 12 11 10 10 11 12 13 13 15
23 24 23 23 24 22 18 18 25 21 13 12 10 8 4 9 5 5 2 1 3 0 2 5 8 10 14 13 12 13 12 12 11 7 7 8 11 13 13 13 13 14 15
24 22 22 20 19 18 19 24 27 20 10 10 13 7 7 3 2 3 3 3 1 1 2 5 9 11 14 14 15 13 12 11 6 10 14 16 14 12 13 12 12 13 15
25 25 28 27 27 27 29 27 19 16 11 10 13 6 3 2 5 7 7 5 4 2 6 7 11 15 18 20 20 18 16 12 15 15 17 10 9 8 8 11 12 13 13
24 24 24 24 25 24 22 20 18 16 9 5 3 2 3 6 7 7 7 8 9 9 14 7 11 16 19 24 23 22 18 15 13 22 13 7 11 10 12 12 11 10 14
21 19 18 19 20 19 17 15 13 9 4 1 1 7 4 7 9 9 11 13 15 17 15 12 11 18 17 28 32 30 24 18 14 11 13 9 13 11 12 11 15 12 18
19 18 17 17 16 14 14 12 8 3 5 7 10 7 9 8 9 9 13 15 17 18 15 16 15 16 18 24 26 24 29 22 15 9 19 9 12 13 13 16 12 19 20
19 17 15 14 13 12 12 10 6 8 9 11 11 13 12 10 11 11 14 17 15 16 14 14 13 14 16 19 23 22 17 20 10 16 23 11 17 15 16 18 20 23 22
17 14 13 12 11 9 9 6 8 12 13 15 18 16 14 12 15 18 18 15 13 12 11 11 11 10 17 20 23 24 19 13 7 17 22 12 19 17 21 18 23 26 28
14 13 11 9 8 7 6 8 13 17 17 18 19 18 17 16 17 18 15 11 9 8 10 10 12 14 17 25 26 26 24 14 10 17 24 8 18 16 24 24 25 32 24
15 11 9 8 8 11 10 14 18 20 20 19 17 16 15 16 14 13 11 8 6 6 7 8 11 13 16 21 25 27 24 19 6 15 24 5 19 15 22 28 30 32 26
14 12 11 10 15 17 14 19 23 23 23 20 17 14 13 14 13 10 8 6 5 5 6 5 9 12 15 17 23 30 33 25 12 13 31 11 16 15 16 29 34 30 31
15 14 14 16 19 21 19 22 23 26 25 20 16 14 11 11 12 11 7 6 8 6 5 4 7 14 16 16 17 24 30 23 21 10 26 15 18 12 7 23 34 36 32
Wind_Direction
24 47 61 21 359 348 333 334 332 338 346 344 350 352 346 325 304 301 290 258 250 248 253 268 269 265 264 261 262 262 261 259 256 253 251 255 256 256 258 257 258 257 255
16 41 357 359 352 326 333 324 326 319 329 338 342 337 348 341 332 304 299 276 251 250 258 265 268 273 274 277 281 276 274 271 266 265 260 255 252 254 249 249 254 258 261
277 272 321 344 334 331 328 320 318 312 313 348 342 337 339 338 341 343 310 291 268 262 260 268 266 274 280 282 290 286 281 273 267 263 262 266 268 264 268 270 267 266 264
272 266 279 313 340 5 2 353 337 327 320 336 339 332 327 323 310 316 318 316 294 293 280 273 268 269 273 275 289 278 277 268 264 259 262 272 285 292 301 301 294 280 267
265 274 276 286 302 339 351 2 341 317 327 331 334 331 317 314 282 340 318 317 306 286 284 284 280 266 260 272 285 275 264 254 234 240 254 251 228 262 307 314 314 302 280
259 270 276 279 281 303 320 315 314 311 316 325 328 330 319 318 284 312 353 333 319 301 299 288 282 260 250 260 267 270 262 248 231 229 234 241 256 279 304 313 312 304 287
263 263 279 284 282 295 303 304 315 321 326 322 324 334 329 339 329 268 314 324 308 305 310 305 291 263 253 262 252 252 258 255 245 243 247 246 262 281 300 304 304 293 282
262 263 276 285 291 294 299 288 296 309 314 308 296 320 349 336 342 324 330 317 312 315 311 300 288 267 245 269 252 245 253 255 247 253 254 255 267 279 291 297 300 295 274
279 271 273 280 285 286 289 293 298 290 269 267 236 200 174 247 326 305 328 340 339 324 318 304 296 269 267 291 268 252 253 258 261 261 257 262 271 283 291 292 291 283 275
279 282 283 278 280 290 284 290 290 310 291 310 296 244 227 218 204 310 312 332 345 356 5 27 36 32 340 328 330 313 265 277 267 274 268 271 270 276 281 283 276 270 264
274 282 298 286 280 285 288 287 284 289 297 294 291 222 205 232 230 232 287 328 21 33 50 58 59 52 39 23 13 360 325 279 274 276 274 277 282 277 272 266 268 266 260
262 277 298 305 296 293 299 302 302 305 291 282 286 247 232 241 217 227 253 294 241 69 56 50 44 25 6 349 331 311 295 290 281 276 282 283 284 277 268 259 263 266 260
262 271 283 294 297 303 317 319 321 317 294 251 255 247 239 275 272 271 257 253 264 210 293 30 32 19 5 350 331 315 307 301 296 291 290 290 285 272 256 258 267 271 271
263 269 278 280 287 300 306 308 316 311 291 239 238 224 192 285 295 285 247 208 189 141 63 8 29 12 354 336 324 312 308 303 301 303 294 284 279 278 279 280 280 278 271
261 270 274 278 285 293 298 306 314 309 283 244 225 206 244 299 308 353 311 259 166 223 39 16 7 359 355 345 340 335 326 325 333 320 315 311 303 298 293 283 279 277 274
261 267 275 281 289 292 298 306 310 305 277 229 197 214 280 322 9 45 65 68 2 160 132 26 15 353 0 6 4 349 349 347 344 329 343 324 309 301 295 295 297 290 278
261 268 272 278 283 288 295 300 303 310 298 234 226 256 283 101 81 85 78 54 35 60 99 54 47 37 26 16 13 9 3 6 14 353 331 327 323 309 311 315 308 295 284
263 267 276 282 285 288 292 295 303 304 303 285 267 204 151 130 115 89 62 58 63 76 109 85 36 28 24 19 12 4 0 358 344 4 359 328 340 321 307 313 319 303 300
262 269 274 280 287 286 290 298 297 295 319 30 104 156 147 142 107 85 81 82 91 99 88 81 45 29 12 10 5 4 6 360 348 342 1 348 348 341 336 326 317 315 311
262 269 274 280 282 284 290 295 281 233 140 113 116 126 135 130 104 99 99 103 104 94 80 64 46 28 10 2 5 354 354 359 357 348 359 353 351 356 352 344 330 324 314
264 270 273 273 277 286 292 279 222 155 138 129 126 127 122 105 98 100 114 114 102 88 73 57 39 25 7 359 359 348 338 345 9 10 353 11 5 3 1 353 352 338 329
259 261 261 266 278 288 280 215 178 150 144 137 130 125 120 119 115 114 111 102 83 77 72 59 38 22 10 1 356 351 351 350 350 358 359 3 4 10 8 6 355 359 356
249 249 253 260 271 257 199 165 159 151 147 145 142 138 131 125 127 126 117 107 88 73 65 56 51 37 23 16 8 0 358 354 350 1 2 347 359 11 14 17 10 24 47
237 236 239 239 223 183 166 158 157 150 147 146 145 141 136 134 136 131 123 112 98 75 70 59 51 41 26 16 16 15 10 2 24 18 11 334 352 8 16 28 36 43 53
220 214 215 209 178 166 167 162 160 153 148 148 148 146 146 144 142 140 127 120 94 79 99 76 47 25 12 11 16 19 19 16 16 13 12 359 350 343 18 20 37 51 57
206 196 192 186 178 166 170 169 168 158 151 154 152 152 154 156 145 140 133 112 99 94 126 99 42 22 15 15 17 26 28 23 16 8 357 359 6 8 349 24 34 42 47